Weather Roundup
Issued by NWS Springfield, MO

Home | Current Version | Previous Version | Text Only | Print | Product List | Glossary Off
Versions: 1 2 3 4 5 6 7 8 9 10 11 12 13 14 15 16 17 18 19 20 21 22 23 24 25 26 27 28 29 30 31 32 33 34 35 36 37 38 39 40 41 42 43 44 45 46 47 48 49 50

000
NZUS99 KSGF 301707
HRRSGF

HOURLY WEATHER
NATIONAL WEATHER SERVICE SPRINGFIELD MO
1200 PM CDT SAT JUL 30 2016

......SGF CWA......

CITY           SKY/WX    TMP DP  RH WIND       PRES   REMARKS
SPRINGFIELD    MOSUNNY   83  65  54 SW5       30.04R
JOPLIN         MOSUNNY   87  71  58 CALM      30.04R HX  93
WEST PLAINS    PTSUNNY   82  67  60 SW5       30.06S
ROLLA          PTSUNNY   79  67  66 W7        30.03R
OSAGE BEACH    MOSUNNY   82  69  64 W7        30.04S
BRANSON        PTSUNNY   82  72  69 CALM      30.06S

......SURROUNDING SGF CWA......

CITY           SKY/WX    TMP DP  RH WIND       PRES   REMARKS
CHANUTE        MOSUNNY   84  71  65 VRB3      30.03S
PARSONS        PTSUNNY   85  71  63 S6        30.04R HX  90
COFFEYVILLE    CLOUDY    84  70  62 SW8       30.04R
EMPORIA        MOSUNNY   82  70  66 E8        30.02F
GROVE OK       PTSUNNY   86  72  62 N3        30.04R HX  92
ROGERS AR      PTSUNNY   85  71  63 VRB5      30.06S HX  90
SILOAM SPRINGS PTSUNNY   84  66  54 CALM      30.05S
HARRISON AR    SUNNY     85  71  63 N7        30.05S HX  90
NEAR YELLVILLE PTSUNNY   84  73  70 S5        30.01S HX  91

......KANSAS AND MISSOURI......

CITY           SKY/WX    TMP DP  RH WIND       PRES   REMARKS
KANSAS CTY INT MOSUNNY   78  61  55 CALM      30.05S
DOWNTOWN KC    MOSUNNY   81  64  56 CALM      30.03S
COLUMBIA       MOSUNNY   80  67  64 W6        30.04R
SEDALIA        PTSUNNY   81  66  60 W3        30.05S
ST JOSEPH      SUNNY     79  62  56 CALM      30.03F
ST LOUIS       MOSUNNY   82  64  54 NW8       30.00S
SPIRIT OF STL  PTSUNNY   85  67  54 W8        29.99S
KIRKSVILLE     CLOUDY    76  64  66 NW7       30.04R
WICHITA        CLOUDY    77  68  73 SE9       30.00F
TOPEKA         MOSUNNY   81  64  56 E7        30.03S
OLATHE         SUNNY     80  63  55 VRB3      30.04F

......TENNESSEE......

CITY           SKY/WX    TMP DP  RH WIND       PRES   REMARKS
MEMPHIS        MOSUNNY   86  74  67 W5        30.02S HX  94
NASHVILLE      PTSUNNY   85  70  60 SW6       30.02F

......ARKANSAS.......

CITY           SKY/WX    TMP DP  RH WIND       PRES   REMARKS
FAYETTEVILLE   CLOUDY    82  74  76 S6        30.05R
FT SMITH       PTSUNNY   87  69  54 CALM      30.00S HX  91
LITTLE ROCK    PTSUNNY   89  72  56 CALM      30.01F HX  96

......OKLAHOMA.......

CITY           SKY/WX    TMP DP  RH WIND       PRES   REMARKS
TULSA          LGT RAIN  73  72  96 N9        30.03R
PONCA CITY     CLOUDY    73  70  90 E12       29.98F
MCALESTER      PTSUNNY   89  74  60 SW6       30.01S HX  98
OKLAHOMA CITY  CLOUDY    84  71  65 VRB5      29.98F

......IOWA............

CITY           SKY/WX    TMP DP  RH WIND       PRES   REMARKS
DES MOINES     CLOUDY    76  64  66 N5        30.03S
QUAD CITIES    PTSUNNY   79  68  69 E7        29.99S

......ILLINOIS........

CITY           SKY/WX    TMP DP  RH WIND       PRES   REMARKS
QUINCY         PTSUNNY   77  68  73 VRB7      30.01S
CHICAGO        CLOUDY    73  65  75 NE9       30.00R




USA.gov is the U.S. government's official web portal to all federal, state and local government web resources and services.